www.pogodaiklimat.ru

Погода и климат >> Архив погоды >> Австралия >> Южная Австралия >> Порт Огаста


ПОГОДА в Порт Огаста

  • Прогноз погоды в Порт Огаста
  • Монитор погоды в Порт Огаста

АРХИВ ПОГОДЫ в Порт Огаста

Время (UTC), дата Ветер
(напр.,м/с)
 
Видим.   Явления Облачность Т
(С)
Тd
(С)
f
(%)
Тe
(С)
Тes
(С)
Комфортность P
(гПа)
Po
(гПа)
Тmin
(С)
Tmax
(С)
R
(мм)
R24
(мм)
S
(см)
07 11.06 С 6 н/о н/о +23.5 +4.9 30 +23 +23 комфорт 1015.6 1013.8
08 11.06 С 3 н/о 8/0
[]
+20.5 +4.5 35 +22 +22 комфорт 1015.4 1013.6
09 11.06 СЗ 2 н/о н/о +20.4 +4.8 36 +22 +22 комфорт 1015.6 1013.8
10 11.06 штиль 0 н/о н/о +20.3 +4.8 36 +21 +21 комфорт 1015.2 1013.4
11 11.06 СВ 2 н/о 10/0 2000 м
[]
+21.0 +5.8 37 +23 +23 комфорт 1014.6 1012.8
12 11.06 СЗ 2 н/о н/о +21.2 +8.5 44 +22 +22 комфорт 1014.2 1012.4
13 11.06 С 4 н/о н/о +21.3 +9.5 47 +23 +23 комфорт 1013.3 1011.5
14 11.06 С 8 н/о 10/10 1500 м
[]
+24.3 +10.6 42 +25 +25 комфорт 1012.3 1010.5 +24.4
15 11.06 С 10 н/о н/о +24.9 +10.0 39 +26 +26 жарко 1010.6 1008.8
16 11.06 С 11 н/о н/о +23.8 +10.8 44 +25 +25 комфорт 1009.4 1007.6
17 11.06 СЗ 9 8000 м туман местами 10/10 600 м
[]
+23.0 +11.4 48 +25 +25 комфорт 1010.5 1008.7 3
18 11.06 З 6 н/о н/о +17.2 +16.1 93 +16 +16 1012.5 1010.7
19 11.06 З 6 н/о н/о +17.6 +16.5 93 +17 +17 1013.2 1011.4
20 11.06 З 3 4000 м туман 10/10 300 м
[]
+15.8 +15.0 95 +15 +15 1014.5 1012.7
21 11.06 С 2 н/о н/о +15.4 +14.6 95 +15 +15 1015.4 1013.6
22 11.06 С 3 н/о н/о +15.1 +14.6 97 +14 +14 1017.2 1015.4
23 11.06 СВ 4 н/о туман местами 9/0
[]
+14.8 +14.5 98 +13 +13 1017.1 1015.3 32
00 12.06 СВ 5 н/о н/о +14.8 +14.5 98 +13 +13 1016.4 1014.6
01 12.06 С 4 н/о н/о +15.1 +14.0 93 +14 +14 1016.3 1014.5
02 12.06 С 3 н/о туман местами 10/10 600 м
[]
+15.4 +14.3 93 +15 +15 1016.6 1014.8 +14.5
03 12.06 С 5 н/о н/о +15.5 +14.2 92 +14 +14 1015.6 1013.8
04 12.06 С 5 н/о н/о +15.9 +13.9 88 +15 +15 1015.4 1013.6
05 12.06 С 5 н/о {туман} 10/10 300 м
[]
+16.6 +14.1 85 +16 +16 1015.2 1013.4 3
06 12.06 С 6 н/о н/о +17.2 +14.3 83 +16 +16 1015.4 1013.6
07 12.06 С 6 н/о н/о +16.5 +14.0 85 +15 +15 1015.4 1013.6
08 12.06 С 3 н/о в посл. час дождь {туман} 4/0 2000 м
[]
+15.8 +14.7 93 +15 +15 1016.3 1014.5
09 12.06 С 3 н/о н/о +14.4 +13.8 96 +13 +13 1017.3 1015.5
10 12.06 С 3 н/о н/о +14.8 +14.2 96 +14 +14 1018.3 1016.5
11 12.06 штиль 0 н/о в посл. час дождь {туман} 1/1 1000 м
[]
+14.1 +13.5 96 +14 +14 1018.7 1016.9 4
12 12.06 штиль 0 н/о н/о +12.7 +12.2 97 +12 +12 1018.9 1017.1
13 12.06 З 2 н/о н/о +11.5 +11.0 97 +10 +10 1019.5 1017.7
14 12.06 СЗ 2 н/о н/о +10.9 +10.6 98 +9 +9 1019.3 1017.5 +25.3
15 12.06 З 3 н/о н/о +11.0 +10.1 94 +9 +9 1019.4 1017.6
16 12.06 ЮЗ 2 н/о н/о +10.4 +9.2 92 +9 +9 1019.5 1017.7
17 12.06 З 3 н/о н/о +9.3 +8.5 95 +7 +7 1019.9 1018.1
18 12.06 С 2 н/о н/о +8.5 +8.1 97 +7 +7 1019.5 1017.7
19 12.06 З 2 н/о н/о +8.1 +7.7 97 +6 +6 1019.7 1017.9
20 12.06 З 2 н/о {туман} н/о +7.8 +7.5 98 +6 +6 1020.0 1018.2
21 12.06 З 2 н/о н/о +7.7 +7.4 98 +6 +6 1020.7 1018.9
22 12.06 С 2 н/о н/о +7.1 +6.8 98 +5 +5 1020.8 1019.0
23 12.06 С 1 н/о {туман} 1/1 50 м
[]
+10.0 +9.9 99 +9 +9 1021.2 1019.4 7
00 13.06 СЗ 3 н/о н/о +11.9 +11.1 95 +10 +10 1021.6 1019.8
01 13.06 СЗ 4 н/о н/о +13.9 +11.4 85 +12 +12 1022.0 1020.2
02 13.06 СЗ 5 н/о 1/1 300 м
[]
+15.4 +11.0 75 +14 +14 1021.9 1020.1 +7.0
03 13.06 СЗ 5 н/о н/о +17.1 +11.6 70 +17 +17 1021.0 1019.2
04 13.06 СЗ 5 н/о н/о +17.8 +11.1 65 +17 +17 1019.9 1018.1
05 13.06 З 3 н/о 10/10 1000 м
[]
+17.7 +9.3 58 +18 +18 1019.4 1017.6
06 13.06 З 3 н/о н/о +16.9 +10.1 64 +17 +17 1019.4 1017.6
07 13.06 С 3 н/о н/о +16.5 +10.4 67 +16 +16 1019.7 1017.9
08 13.06 СВ 2 н/о 10/10 1500 м
[]
+15.6 +10.4 71 +16 +16 1019.8 1018.0
09 13.06 С 2 н/о н/о +13.6 +10.0 79 +13 +13 1020.4 1018.6
10 13.06 СЗ 2 н/о н/о +12.6 +10.5 87 +12 +12 1021.1 1019.3
11 13.06 штиль 0 н/о 10/10 1500 м
[]
+12.5 +10.7 89 +12 +12 1021.4 1019.6
12 13.06 С 3 н/о н/о +11.3 +9.9 91 +10 +10 1021.7 1019.9
13 13.06 СЗ 3 н/о н/о +12.3 +10.9 91 +11 +11 1021.9 1020.1
14 13.06 С 3 н/о в посл. час дождь {туман} 9/9 1500 м
[]
+11.0 +9.8 92 +9 +9 1021.9 1020.1 +18.4
15 13.06 С 1 н/о н/о +11.7 +10.8 94 +11 +11 1021.5 1019.7
16 13.06 З 2 н/о н/о +11.2 +10.4 95 +10 +10 1021.5 1019.7
17 13.06 ЮЗ 3 н/о {туман} 10/10 1000 м
[]
+10.3 +9.7 96 +8 +8 1021.2 1019.4 0.2
18 13.06 З 3 н/о н/о +9.7 +9.1 96 +8 +8 1021.3 1019.5
19 13.06 З 3 н/о н/о +9.1 +8.6 97 +6 +6 1021.2 1019.4
20 13.06 З 2 н/о н/о +9.0 +8.6 97 +7 +7 1021.4 1019.6
21 13.06 СЗ 2 н/о н/о +8.3 +8.0 98 +7 +7 1021.8 1020.0
22 13.06 С 2 н/о н/о +8.8 +8.5 98 +7 +7 1022.4 1020.6
23 13.06 СЗ 2 н/о 10/10 1500 м
[]
+10.5 +10.2 98 +9 +9 1022.6 1020.8 0.2
00 14.06 З 3 н/о н/о +11.5 +10.6 94 +10 +10 1023.1 1021.3
01 14.06 С 4 н/о н/о +14.7 +11.1 79 +13 +13 1023.0 1021.2
02 14.06 СЗ 4 н/о н/о +16.8 +10.0 64 +16 +16 1022.8 1021.0 +7.9
03 14.06 СЗ 3 н/о н/о +18.3 +8.6 53 +19 +19 1022.0 1020.2
04 14.06 З 4 н/о н/о +18.2 +6.4 46 +18 +18 1021.2 1019.4
05 14.06 З 5 н/о н/о +18.8 +4.9 40 +19 +19 1020.9 1019.1
06 14.06 ЮЗ 6 н/о н/о +18.4 +6.3 45 +18 +18 1020.8 1019.0
07 14.06 З 4 н/о н/о +17.9 +6.1 46 +18 +18 1020.9 1019.1
08 14.06 З 2 н/о н/о +15.4 +7.9 61 +15 +15 1021.0 1019.2
09 14.06 З 3 н/о н/о +12.5 +8.6 77 +11 +11 1021.4 1019.6
10 14.06 ЮЗ 2 н/о н/о +11.9 +8.2 78 +11 +11 1022.0 1020.2
11 14.06 СЗ 2 н/о н/о +10.6 +7.7 82 +9 +9 1022.1 1020.3
12 14.06 СЗ 1 н/о н/о +9.4 +7.3 87 +9 +9 1022.4 1020.6
13 14.06 СЗ 2 н/о н/о +8.9 +6.7 86 +8 +8 1022.4 1020.6
14 14.06 З 2 н/о н/о +7.8 +6.1 89 +6 +6 1022.4 1020.6 +19.4
15 14.06 З 2 н/о н/о +7.2 +5.8 91 +5 +5 1022.2 1020.4
16 14.06 С 2 н/о н/о +7.1 +5.9 92 +5 +5 1022.3 1020.5
17 14.06 З 2 н/о н/о +6.9 +5.8 93 +5 +5 1022.1 1020.3
18 14.06 С 3 н/о н/о +6.4 +5.4 93 +3 +3 1022.2 1020.4
19 14.06 СЗ 1 н/о н/о +5.7 +5.0 95 +4 +4 1022.0 1020.2
20 14.06 штиль 0 н/о н/о +5.3 +4.6 95 +4 +4 1021.9 1020.1
21 14.06 З 3 н/о н/о +5.1 +4.5 96 +2 +2 1022.2 1020.4
22 14.06 С 3 н/о н/о +4.8 +4.4 97 +1 +1 1022.4 1020.6
23 14.06 З 2 н/о {туман} н/о +8.7 +8.1 96 +7 +7 1023.2 1021.4 0.2
00 15.06 С 2 н/о н/о +11.4 +7.7 78 +10 +10 1023.4 1021.6
01 15.06 С 2 н/о н/о +13.9 +8.1 68 +13 +13 1023.4 1021.6
02 15.06 С 3 н/о н/о +16.1 +7.6 57 +16 +16 1022.9 1021.1 +4.3
03 15.06 С 3 н/о н/о +17.3 +5.9 47 +17 +17 1022.2 1020.4
04 15.06 СЗ 4 н/о н/о +18.0 +4.6 41 +18 +18 1021.4 1019.6
05 15.06 СЗ 5 н/о 6/6 1500 м
[]
+18.0 +4.2 40 +18 +18 1020.9 1019.1
06 15.06 СЗ 5 н/о н/о +17.3 +4.3 42 +17 +17 1020.6 1018.8
07 15.06 С 3 н/о н/о +16.6 +5.9 49 +17 +17 1020.5 1018.7
08 15.06 С 3 н/о 4/0
[]
+14.1 +6.7 61 +13 +13 1020.5 1018.7
09 15.06 СВ 4 н/о н/о +11.8 +7.1 73 +10 +10 1020.8 1019.0
10 15.06 С 2 н/о н/о +11.4 +7.9 79 +10 +10 1021.2 1019.4
11 15.06 З 3 н/о н/о +9.8 +7.4 85 +8 +8 1021.4 1019.6
12 15.06 З 3 н/о н/о +9.0 +7.3 89 +6 +6 1021.4 1019.6
13 15.06 З 2 н/о н/о +8.8 +7.1 89 +7 +7 1021.3 1019.5
14 15.06 ЮЗ 2 н/о 10/0
[]
+8.9 +7.0 88 +8 +8 1021.4 1019.6 +18.4
15 15.06 З 2 н/о н/о +8.3 +6.4 88 +6 +6 1021.3 1019.5
16 15.06 С 3 н/о н/о +7.9 +6.2 89 +5 +5 1020.8 1019.0
17 15.06 СЗ 1 н/о н/о +7.5 +6.0 90 +6 +6 1020.6 1018.8
18 15.06 штиль 0 н/о н/о +6.8 +5.6 92 +6 +6 1020.5 1018.7
19 15.06 З 1 н/о н/о +6.2 +5.5 95 +5 +5 1019.9 1018.1
20 15.06 З 2 н/о 9/0
[]
+6.7 +6.0 95 +4 +4 1020.2 1018.4
21 15.06 З 3 н/о н/о +6.9 +6.0 94 +4 +4 1020.8 1019.0
22 15.06 З 2 н/о н/о +6.7 +5.7 93 +4 +4 1021.4 1019.6
23 15.06 штиль 0 н/о 8/0 2000 м
[]
+9.9 +8.8 93 +9 +9 1022.2 1020.4
00 16.06 С 3 н/о н/о +12.6 +7.7 72 +11 +11 1022.5 1020.7
01 16.06 С 4 н/о н/о +14.7 +7.5 62 +14 +14 1022.6 1020.8
02 16.06 СЗ 2 н/о н/о +15.6 +7.9 60 +16 +16 1021.9 1020.1 +5.9
03 16.06 С 3 н/о н/о +16.4 +7.1 54 +16 +16 1021.4 1019.6
04 16.06 СЗ 3 н/о н/о +17.5 +7.0 50 +18 +18 1021.1 1019.3
05 16.06 С 4 н/о н/о +18.2 +6.7 47 +18 +18 1020.8 1019.0
06 16.06 СЗ 2 н/о н/о +17.8 +6.0 46 +18 +18 1021.0 1019.2
07 16.06 С 2 н/о н/о +17.1 +6.6 50 +17 +17 1021.2 1019.4
08 16.06 С 2 н/о н/о +14.4 +7.0 61 +14 +14 1021.8 1020.0
09 16.06 СВ 3 н/о н/о +12.1 +6.6 69 +11 +11 1022.2 1020.4
10 16.06 С 2 н/о н/о +11.6 +6.9 73 +11 +11 1022.7 1020.9
11 16.06 штиль 0 н/о н/о +8.9 +6.5 85 +8 +8 1023.2 1021.4
12 16.06 ЮЗ 3 н/о н/о +8.2 +6.7 90 +6 +6 1023.5 1021.7
13 16.06 З 2 н/о н/о +8.1 +6.4 89 +6 +6 1023.7 1021.9
14 16.06 З 2 н/о н/о +7.7 +6.3 91 +6 +6 1023.7 1021.9 +18.4
15 16.06 З 2 н/о н/о +6.6 +5.4 92 +5 +5 1023.3 1021.5
16 16.06 СЗ 2 н/о н/о +5.9 +5.2 95 +3 +3 1022.9 1021.1
17 16.06 З 1 н/о н/о +5.6 +4.9 95 +4 +4 1023.0 1021.2
18 16.06 С 4 н/о н/о +4.7 +4.1 96 +1 +1 1022.8 1021.0
19 16.06 С 1 н/о н/о +5.3 +4.9 97 +5 +5 1022.8 1021.0
20 16.06 З 4 н/о н/о +5.0 +4.6 97 +1 +1 1023.0 1021.2
21 16.06 З 2 н/о н/о +4.4 +4.0 97 +2 +2 1023.2 1021.4
22 16.06 З 2 н/о н/о +4.3 +3.9 97 +1 +1 1023.7 1021.9
23 16.06 С 3 н/о {туман} н/о +7.3 +7.0 98 +4 +4 1024.1 1022.3 0.2
00 17.06 С 3 н/о н/о +9.0 +7.3 89 +7 +7 1024.5 1022.7
01 17.06 С 3 н/о н/о +12.1 +8.4 78 +11 +11 1024.4 1022.6
02 17.06 С 5 н/о н/о +14.5 +8.2 66 +13 +13 1023.7 1021.9 +3.9
03 17.06 С 5 н/о н/о +15.5 +9.0 65 +14 +14 1022.7 1020.9
04 17.06 СЗ 8 н/о н/о +12.8 +9.8 82 +10 +10 1022.5 1020.7
05 17.06 СЗ 4 н/о {туман} 9/0 2000 м
[]
+14.9 +7.2 60 +14 +14 1021.9 1020.1 0.2
06 17.06 СЗ 5 н/о н/о +16.2 +5.2 48 +15 +15 1021.7 1019.9
07 17.06 СЗ 5 н/о н/о +15.5 +3.9 46 +14 +14 1021.5 1019.7
08 17.06 СЗ 3 н/о 10/0 2000 м
[]
+12.4 +5.8 64 +11 +11 1021.3 1019.5
09 17.06 С 3 н/о н/о +11.6 +6.5 71 +10 +10 1021.5 1019.7
10 17.06 С 3 н/о н/о +11.7 +7.2 74 +10 +10 1021.9 1020.1
11 17.06 С 3 н/о 10/10 1500 м
[]
+11.6 +7.5 76 +10 +10 1021.9 1020.1
12 17.06 С 2 н/о н/о +11.3 +7.6 78 +10 +10 1021.9 1020.1
13 17.06 СЗ 3 н/о н/о +10.4 +7.5 82 +9 +9 1021.7 1019.9
14 17.06 СЗ 4 н/о 10/10 1000 м
[]
+10.7 +7.8 82 +8 +8 1021.8 1020.0 +16.8
15 17.06 СЗ 3 н/о н/о +11.2 +7.5 78 +10 +10 1021.6 1019.8
16 17.06 З 3 н/о н/о +10.8 +9.6 92 +9 +9 1022.1 1020.3
17 17.06 Ю 2 н/о 1/0 2000 м
[]
+10.4 +8.8 90 +9 +9 1022.3 1020.5
18 17.06 ЮЗ 3 н/о н/о +9.8 +8.2 90 +8 +8 1022.7 1020.9
19 17.06 З 2 н/о н/о +9.5 +7.3 86 +8 +8 1022.9 1021.1
20 17.06 ЮЗ 4 н/о н/о +8.3 +7.2 93 +5 +5 1023.4 1021.6
21 17.06 ЮЗ 5 н/о н/о +7.7 +6.8 94 +4 +4 1023.9 1022.1
22 17.06 ЮЗ 5 н/о н/о +7.0 +5.9 93 +3 +3 1024.7 1022.9
23 17.06 ЮЗ 4 н/о {туман} н/о +9.0 +5.7 80 +6 +6 1025.3 1023.5 0.4
00 18.06 ЮЗ 5 н/о н/о +12.0 +6.3 68 +10 +10 1026.1 1024.3
01 18.06 ЮВ 4 н/о н/о +12.0 +6.1 67 +10 +10 1026.8 1025.0
02 18.06 ЮВ 5 н/о 10/10 600 м
[]
+12.9 +7.1 68 +11 +11 1026.6 1024.8 +6.6
03 18.06 Ю 5 н/о н/о +13.7 +6.3 61 +12 +12 1025.9 1024.1
04 18.06 ЮВ 5 н/о н/о +13.5 +6.6 63 +12 +12 1025.4 1023.6
05 18.06 ЮВ 5 н/о 3/3 1000 м
[]
+13.3 +5.7 60 +11 +11 1025.1 1023.3
06 18.06 ЮВ 6 н/о н/о +13.4 +6.3 62 +11 +11 1025.3 1023.5
07 18.06 Ю 6 н/о н/о +12.8 +5.2 60 +11 +11 1025.5 1023.7
08 18.06 Ю 4 н/о 1/0 2000 м
[]
+11.6 +5.5 66 +10 +10 1025.8 1024.0

 

Местоположение метеостанции Порт Огаста (Южная Австралия, Австралия): широта -32.52 долгота 137.72 высота над уровнем моря 14 м.

В архиве по умолчанию представлена погода в Порт Огаста за последнюю неделю. Архивные данные за месяц целиком и за предыдущие месяцы, начиная с января 2011 года, Вы можете получить, выбрав интересующий диапазон дат из раскрывающегося списка и нажав кнопку "Ввод!".


*Определитесь, кто Вы:
робот инопланетянин человек

Внимание! Время в таблицах - всемирное. Для получения местного времени необходимо прибавить поправку, которая равна 9.5 ч.

Смотрите также архив погоды в соседних городах и на ближайших метеорологических станциях:

Погода в Уиолле (Южная Австралия, Австралия) (64 км)
Погода в Сноутауне (Южная Австралия, Австралия) (148 км)
Погода в Кадине (Южная Австралия, Австралия) (161 км)
Погода в Мунте (Южная Австралия, Австралия) (166 км)
Погода в Клэре (Южная Австралия, Австралия) (166 км)
Погода в Юнте (Южная Австралия, Австралия) (174 км)
Погода на Аэродроме Вумера (Южная Австралия, Австралия) (175 км)
Погода в Кливе аэропорту (Южная Австралия, Австралия) (175 км)
Погода в Уудинне (Южная Австралия, Австралия) (220 км)
Погода в Ли-Крике (Южная Австралия, Австралия) (224 км)

Пояснения к столбцам:

Ветер - указаны скорость ветра в м/с - средняя за 10 мин, порывы в срок и между сроками (в фигурных скобках) и направление, откуда дует ветер: С - северный, СВ - северо-восточный, В - восточный, ЮВ - юго-восточный, Ю - южный, ЮЗ - юго-западный, З - западный, СЗ - северо-западный.
Видимость - горизонтальная дальность видимости в метрах или километрах. При видимости от 1 до 10 км при отсутствии осадков обычно наблюдается дымка, при ухудшении видимости до 1 км и менее - туман. В сухую погоду видимость может ухудшаться дымом, пылью или мглою.
Явления - указаны атмосферные явления, наблюдавшиеся в срок или в последний час перед сроком; фигурными скобками обозначены явления, наблюдавшиеся между сроками (за 1-3 часа до срока); квадратными скобками обозначены град или гололедные отложения с указанием их диаметра в мм.
Облачность - указаны через наклонную черту общая и нижняя облачность в баллах и высота нижней границы облаков в метрах; квадратными скобками обозначены формы облаков: Ci - перистые, Cs - перисто-слоистые, Cc - перисто-кучевые, Ac - высококучевые, As - высокослоистые, Sc - слоисто-кучевые, Ns - слоисто-дождевые, Cu - кучевые, Cb - кучево-дождевые. Подробнее классификацию облаков см. в Атласе облаков (PDF).
T - Температура воздуха - температура, измеренная на высоте 2 м над землей.
Td - Температура точки росы - температура, при понижении до которой содержащийся в воздухе водяной пар достигнет насыщения.
f - Относительная влажность воздуха - влажноcть воздуха, измеренная на высоте 2 м над землей.
Te - Эффективная температура - температура, которую ощущает одетый по сезону человек в тени. Характеристика душности погоды. При расчете учитывается влияние влажности воздуха и скорости ветра на теплоощущения человека.
Tes - Эффективная температура на солнце - температура, которую ощущает человек, с поправкой на солнечный нагрев. Характеристика знойности погоды. Зависит от высоты солнца над горизонтом, облачности и скорости ветра. Ночью, в пасмурную погоду, а также при ветре 12 м/с и более поправка равна нулю.
P - Атмосферное давление - приведенное к уровню моря атмосферное давление.
Po - Атмосферное давление - измеренное на уровне метеостанции атмосферное давление.
Tmin - Минимальная температура - минимум температуры воздуха на высоте 2 м над землей.
Tmax - Максимальная температура - максимум температуры воздуха на высоте 2 м над землей.
R - Количество осадков - Количество выпавших осадков за период времени, мм. При наведении курсора мыши на число - период времени, за который выпало указанное количество осадков.
R24 - Количество осадков - Количество выпавших осадков за 24 часа, мм.
S - Снежный покров - Высота снежного покрова, см. При наведении курсора мыши на число - состояние снежного покрова и степень покрытия местности в баллах.